date,time,SUV Intensity [MED/Hr],UV Index,Daily total [MED],Since Last [MED]
23/07/2023,23:59:17,-0.001,0.0,10.488,10.488
24/07/2023,00:00:17,-0.001,0.0,0.0,-10.488
24/07/2023,00:01:17,0.000,0.0,0.0,0.0
24/07/2023,00:02:17,0.000,0.0,0.0,0.0
24/07/2023,00:03:18,0.000,0.0,0.0,0.0
24/07/2023,00:04:17,0.000,0.0,0.0,0.0
24/07/2023,00:05:17,0.000,0.0,0.0,0.0
24/07/2023,00:06:18,0.000,0.0,0.0,0.0
24/07/2023,00:07:17,-0.001,0.0,0.0,0.0
24/07/2023,00:08:17,0.000,0.0,0.0,0.0
24/07/2023,00:09:17,0.000,0.0,0.0,0.0
24/07/2023,00:10:18,0.000,0.0,0.0,0.0
24/07/2023,00:11:17,0.000,0.0,0.0,0.0
24/07/2023,00:12:17,0.000,0.0,0.0,0.0
24/07/2023,00:13:17,0.001,0.0,0.0,0.0
24/07/2023,00:14:17,-0.000,0.0,0.0,0.0
24/07/2023,00:15:17,0.000,0.0,0.0,0.0
24/07/2023,00:16:18,0.000,0.0,0.0,0.0
24/07/2023,00:17:17,0.000,0.0,0.0,0.0
24/07/2023,00:18:17,0.000,0.0,0.0,0.0
24/07/2023,00:19:18,0.001,0.0,0.0,0.0
24/07/2023,00:20:17,0.000,0.0,0.0,0.0
24/07/2023,00:21:17,0.000,0.0,0.0,0.0
24/07/2023,00:22:18,0.000,0.0,0.0,0.0
24/07/2023,00:23:17,0.000,0.0,0.0,0.0
24/07/2023,00:24:18,0.000,0.0,0.0,0.0
24/07/2023,00:25:17,0.000,0.0,0.0,0.0
24/07/2023,00:26:17,0.001,0.0,0.0,0.0
24/07/2023,00:27:18,0.000,0.0,0.0,0.0
24/07/2023,00:28:17,0.001,0.0,0.0,0.0
24/07/2023,00:29:17,0.000,0.0,0.0,0.0
24/07/2023,00:30:18,-0.001,0.0,0.0,0.0
24/07/2023,00:31:17,0.000,0.0,0.0,0.0
24/07/2023,00:32:17,0.000,0.0,0.0,0.0
24/07/2023,00:33:18,0.000,0.0,0.0,0.0
24/07/2023,00:34:17,0.001,0.0,0.0,0.0
24/07/2023,00:35:17,0.000,0.0,0.0,0.0
24/07/2023,00:36:17,0.000,0.0,0.0,0.0
24/07/2023,00:37:17,0.000,0.0,0.0,0.0
24/07/2023,00:38:17,0.000,0.0,0.0,0.0
24/07/2023,00:39:17,0.000,0.0,0.0,0.0
24/07/2023,00:40:17,0.000,0.0,0.0,0.0
24/07/2023,00:41:19,0.000,0.0,0.0,0.0
24/07/2023,00:42:17,0.000,0.0,0.0,0.0
24/07/2023,00:43:18,0.000,0.0,0.0,0.0
24/07/2023,00:44:17,0.000,0.0,0.0,0.0
24/07/2023,00:45:17,0.000,0.0,0.0,0.0
24/07/2023,00:46:18,0.000,0.0,0.0,0.0
24/07/2023,00:47:17,0.000,0.0,0.0,0.0
24/07/2023,00:48:18,-0.001,0.0,0.0,0.0
24/07/2023,00:49:17,0.000,0.0,0.0,0.0
24/07/2023,00:50:17,0.000,0.0,0.0,0.0
24/07/2023,00:51:17,0.000,0.0,0.0,0.0
24/07/2023,00:52:18,0.001,0.0,0.0,0.0
24/07/2023,00:53:17,-0.000,0.0,0.0,0.0
24/07/2023,00:54:17,0.000,0.0,0.0,0.0
24/07/2023,00:55:17,0.000,0.0,0.0,0.0
24/07/2023,00:56:18,0.000,0.0,0.0,0.0
24/07/2023,00:57:17,0.001,0.0,0.0,0.0
24/07/2023,00:58:17,0.000,0.0,0.0,0.0
24/07/2023,00:59:17,0.000,0.0,0.0,0.0
24/07/2023,01:00:17,0.000,0.0,0.0,0.0
24/07/2023,01:01:18,0.000,0.0,0.0,0.0
24/07/2023,01:02:17,-0.001,0.0,0.0,0.0
24/07/2023,01:03:18,0.000,0.0,0.0,0.0
24/07/2023,01:04:18,0.000,0.0,0.0,0.0
24/07/2023,01:05:17,0.000,0.0,0.0,0.0
24/07/2023,01:06:17,0.000,0.0,0.0,0.0
24/07/2023,01:07:17,0.000,0.0,0.0,0.0
24/07/2023,01:08:18,0.001,0.0,0.0,0.0
24/07/2023,01:09:17,0.000,0.0,0.0,0.0
24/07/2023,01:10:18,0.001,0.0,0.0,0.0
24/07/2023,01:11:17,0.000,0.0,0.0,0.0
24/07/2023,01:12:18,-0.000,0.0,0.0,0.0
24/07/2023,01:13:17,0.001,0.0,0.0,0.0
24/07/2023,01:14:17,0.000,0.0,0.0,0.0
24/07/2023,01:15:17,0.000,0.0,0.0,0.0
24/07/2023,01:16:17,0.000,0.0,0.0,0.0
24/07/2023,01:17:17,0.000,0.0,0.0,0.0
24/07/2023,01:18:18,0.000,0.0,0.0,0.0
24/07/2023,01:19:18,0.000,0.0,0.0,0.0
24/07/2023,01:20:17,0.001,0.0,0.0,0.0
24/07/2023,01:21:17,0.000,0.0,0.0,0.0
24/07/2023,01:22:17,-0.001,0.0,0.0,0.0
24/07/2023,01:23:17,0.001,0.0,0.0,0.0
24/07/2023,01:24:18,0.000,0.0,0.0,0.0
24/07/2023,01:25:17,0.000,0.0,0.0,0.0
24/07/2023,01:26:17,0.000,0.0,0.0,0.0
24/07/2023,01:27:17,-0.001,0.0,0.0,0.0
24/07/2023,01:28:18,0.001,0.0,0.0,0.0
24/07/2023,01:29:17,0.001,0.0,0.0,0.0
24/07/2023,01:30:17,0.000,0.0,0.0,0.0
24/07/2023,01:31:18,0.000,0.0,0.0,0.0
24/07/2023,01:32:17,0.000,0.0,0.0,0.0
24/07/2023,01:33:18,0.000,0.0,0.0,0.0
24/07/2023,01:34:18,0.000,0.0,0.0,0.0
24/07/2023,01:35:17,0.001,0.0,0.0,0.0
24/07/2023,01:36:17,0.000,0.0,0.0,0.0
24/07/2023,01:37:17,0.000,0.0,0.0,0.0
24/07/2023,01:38:17,0.000,0.0,0.0,0.0
24/07/2023,01:39:18,0.000,0.0,0.0,0.0
24/07/2023,01:40:17,0.000,0.0,0.0,0.0
24/07/2023,01:41:18,0.000,0.0,0.0,0.0
24/07/2023,01:42:17,0.000,0.0,0.0,0.0
24/07/2023,01:43:18,0.001,0.0,0.0,0.0
24/07/2023,01:44:17,-0.001,0.0,0.0,0.0
24/07/2023,01:45:18,-0.001,0.0,0.0,0.0
24/07/2023,01:46:17,0.000,0.0,0.0,0.0
24/07/2023,01:47:17,0.000,0.0,0.0,0.0
24/07/2023,01:48:18,0.000,0.0,0.0,0.0
24/07/2023,01:49:17,0.000,0.0,0.0,0.0
24/07/2023,01:50:17,0.001,0.0,0.0,0.0
24/07/2023,01:51:18,0.000,0.0,0.0,0.0
24/07/2023,01:52:17,0.000,0.0,0.0,0.0
24/07/2023,01:53:18,0.000,0.0,0.0,0.0
24/07/2023,01:54:18,0.001,0.0,0.0,0.0
24/07/2023,01:55:17,0.000,0.0,0.0,0.0
24/07/2023,01:56:17,0.000,0.0,0.0,0.0
24/07/2023,01:57:17,0.000,0.0,0.0,0.0
24/07/2023,01:58:17,-0.001,0.0,0.0,0.0
24/07/2023,01:59:17,0.000,0.0,0.0,0.0
24/07/2023,02:00:18,0.000,0.0,0.0,0.0
24/07/2023,02:01:18,0.001,0.0,0.0,0.0
24/07/2023,02:02:17,0.000,0.0,0.0,0.0
24/07/2023,02:03:18,-0.000,0.0,0.0,0.0
24/07/2023,02:04:18,0.001,0.0,0.0,0.0
24/07/2023,02:05:18,0.000,0.0,0.0,0.0
24/07/2023,02:06:18,0.000,0.0,0.0,0.0
24/07/2023,02:07:17,0.000,0.0,0.0,0.0
24/07/2023,02:08:18,0.001,0.0,0.0,0.0
24/07/2023,02:09:18,0.000,0.0,0.0,0.0
24/07/2023,02:10:18,0.000,0.0,0.0,0.0
24/07/2023,02:11:17,0.000,0.0,0.0,0.0
24/07/2023,02:12:17,0.001,0.0,0.0,0.0
24/07/2023,02:13:18,0.000,0.0,0.0,0.0
24/07/2023,02:14:17,0.000,0.0,0.0,0.0
24/07/2023,02:15:18,0.000,0.0,0.0,0.0
24/07/2023,02:16:17,0.000,0.0,0.0,0.0
24/07/2023,02:17:17,0.000,0.0,0.0,0.0
24/07/2023,02:18:18,0.001,0.0,0.0,0.0
24/07/2023,02:19:18,-0.001,0.0,0.0,0.0
24/07/2023,02:20:17,0.000,0.0,0.0,0.0
24/07/2023,02:21:17,0.000,0.0,0.0,0.0
24/07/2023,02:22:17,0.000,0.0,0.0,0.0
24/07/2023,02:23:17,0.000,0.0,0.0,0.0
24/07/2023,02:24:18,0.001,0.0,0.0,0.0
24/07/2023,02:25:17,0.000,0.0,0.0,0.0
24/07/2023,02:26:17,0.001,0.0,0.0,0.0
24/07/2023,02:27:18,0.000,0.0,0.0,0.0
24/07/2023,02:28:17,-0.001,0.0,0.0,0.0
24/07/2023,02:29:18,0.000,0.0,0.0,0.0
24/07/2023,02:30:18,0.000,0.0,0.0,0.0
24/07/2023,02:31:17,0.000,0.0,0.0,0.0
24/07/2023,02:32:18,0.001,0.0,0.0,0.0
24/07/2023,02:33:17,0.000,0.0,0.0,0.0
24/07/2023,02:34:17,0.000,0.0,0.0,0.0
24/07/2023,02:35:17,0.000,0.0,0.0,0.0
24/07/2023,02:36:18,0.001,0.0,0.0,0.0
24/07/2023,02:37:17,0.001,0.0,0.0,0.0
24/07/2023,02:38:17,0.001,0.0,0.0,0.0
24/07/2023,02:39:18,0.000,0.0,0.0,0.0
24/07/2023,02:40:18,0.000,0.0,0.0,0.0
24/07/2023,02:41:17,0.001,0.0,0.0,0.0
24/07/2023,02:42:18,0.001,0.0,0.0,0.0
24/07/2023,02:43:17,0.001,0.0,0.0,0.0
24/07/2023,02:44:18,-0.001,0.0,0.0,0.0
24/07/2023,02:45:17,0.000,0.0,0.0,0.0
24/07/2023,02:46:18,0.000,0.0,0.0,0.0
24/07/2023,02:47:18,0.000,0.0,0.0,0.0
24/07/2023,02:48:17,0.001,0.0,0.0,0.0
24/07/2023,02:49:17,0.001,0.0,0.0,0.0
24/07/2023,02:50:17,0.000,0.0,0.0,0.0
24/07/2023,02:51:17,0.001,0.0,0.0,0.0
24/07/2023,02:52:18,0.000,0.0,0.0,0.0
24/07/2023,02:53:17,0.000,0.0,0.0,0.0
24/07/2023,02:54:18,0.000,0.0,0.0,0.0
24/07/2023,02:55:17,0.001,0.0,0.0,0.0
24/07/2023,02:56:18,0.000,0.0,0.0,0.0
24/07/2023,02:57:18,0.000,0.0,0.0,0.0
24/07/2023,02:58:17,0.000,0.0,0.0,0.0
24/07/2023,02:59:18,0.001,0.0,0.0,0.0
24/07/2023,03:00:17,0.000,0.0,0.0,0.0
24/07/2023,03:01:17,0.000,0.0,0.0,0.0
24/07/2023,03:02:18,0.000,0.0,0.0,0.0
24/07/2023,03:03:17,0.000,0.0,0.0,0.0
24/07/2023,03:04:18,0.000,0.0,0.0,0.0
24/07/2023,03:05:17,0.000,0.0,0.0,0.0
24/07/2023,03:06:18,0.000,0.0,0.0,0.0
24/07/2023,03:07:18,0.000,0.0,0.0,0.0
24/07/2023,03:08:18,-0.001,0.0,0.0,0.0
24/07/2023,03:09:17,0.001,0.0,0.0,0.0
24/07/2023,03:10:18,0.000,0.0,0.0,0.0
24/07/2023,03:11:17,0.000,0.0,0.0,0.0
24/07/2023,03:12:18,0.000,0.0,0.0,0.0
24/07/2023,03:13:18,0.000,0.0,0.0,0.0
24/07/2023,03:14:18,0.001,0.0,0.0,0.0
24/07/2023,03:15:17,-0.001,0.0,0.0,0.0
24/07/2023,03:16:18,0.001,0.0,0.0,0.0
24/07/2023,03:17:17,0.000,0.0,0.0,0.0
24/07/2023,03:18:18,0.000,0.0,0.0,0.0
24/07/2023,03:19:18,0.001,0.0,0.0,0.0
24/07/2023,03:20:21,0.000,0.0,0.0,0.0
24/07/2023,03:21:19,0.001,0.0,0.0,0.0
24/07/2023,03:22:18,0.000,0.0,0.0,0.0
24/07/2023,03:23:18,0.000,0.0,0.0,0.0
24/07/2023,03:24:18,0.000,0.0,0.0,0.0
24/07/2023,03:25:17,-0.001,0.0,0.0,0.0
24/07/2023,03:26:18,0.000,0.0,0.0,0.0
24/07/2023,03:27:17,-0.000,0.0,0.0,0.0
24/07/2023,03:28:18,0.000,0.0,0.0,0.0
24/07/2023,03:29:18,0.001,0.0,0.0,0.0
24/07/2023,03:30:18,0.000,0.0,0.0,0.0
24/07/2023,03:31:18,0.000,0.0,0.0,0.0
24/07/2023,03:32:18,0.001,0.0,0.0,0.0
24/07/2023,03:33:17,0.000,0.0,0.0,0.0
24/07/2023,03:34:18,0.001,0.0,0.0,0.0
24/07/2023,03:35:17,0.001,0.0,0.0,0.0
24/07/2023,03:36:18,0.001,0.0,0.0,0.0
24/07/2023,03:37:17,0.001,0.0,0.0,0.0
24/07/2023,03:38:19,0.001,0.0,0.0,0.0
24/07/2023,03:39:18,0.000,0.0,0.0,0.0
24/07/2023,03:40:18,0.000,0.0,0.0,0.0
24/07/2023,03:41:18,0.000,0.0,0.0,0.0
24/07/2023,03:42:19,0.001,0.0,0.0,0.0
24/07/2023,03:43:17,0.000,0.0,0.0,0.0
24/07/2023,03:44:17,0.000,0.0,0.0,0.0
24/07/2023,03:45:17,0.000,0.0,0.0,0.0
24/07/2023,03:46:18,0.000,0.0,0.0,0.0
24/07/2023,03:47:18,0.000,0.0,0.0,0.0
24/07/2023,03:48:18,0.000,0.0,0.0,0.0
24/07/2023,03:49:18,0.001,0.0,0.0,0.0
24/07/2023,03:50:17,0.000,0.0,0.0,0.0
24/07/2023,03:51:18,0.001,0.0,0.0,0.0
24/07/2023,03:52:17,0.001,0.0,0.0,0.0
24/07/2023,03:53:17,0.000,0.0,0.0,0.0
24/07/2023,03:54:17,0.001,0.0,0.0,0.0
24/07/2023,03:55:17,0.001,0.0,0.0,0.0
24/07/2023,03:56:18,0.001,0.0,0.0,0.0
24/07/2023,03:57:17,0.001,0.0,0.0,0.0
24/07/2023,03:58:17,0.001,0.0,0.0,0.0
24/07/2023,03:59:18,0.001,0.0,0.0,0.0
24/07/2023,04:00:18,0.001,0.0,0.0,0.0
24/07/2023,04:01:18,0.001,0.0,0.0,0.0
24/07/2023,04:02:17,0.001,0.0,0.0,0.0
24/07/2023,04:03:18,0.001,0.0,0.0,0.0
24/07/2023,04:04:18,0.001,0.0,0.0,0.0
24/07/2023,04:05:18,0.001,0.0,0.0,0.0
24/07/2023,04:06:18,0.001,0.0,0.0,0.0
24/07/2023,04:07:18,0.001,0.0,0.0,0.0
24/07/2023,04:08:18,0.001,0.0,0.0,0.0
24/07/2023,04:09:17,0.001,0.0,0.0,0.0
24/07/2023,04:10:18,0.001,0.0,0.0,0.0
24/07/2023,04:11:18,0.001,0.0,0.0,0.0
24/07/2023,04:12:18,0.001,0.0,0.0,0.0
24/07/2023,04:13:17,0.001,0.0,0.0,0.0
24/07/2023,04:14:18,0.001,0.0,0.0,0.0
24/07/2023,04:15:17,0.001,0.0,0.0,0.0
24/07/2023,04:16:18,0.001,0.0,0.0,0.0
24/07/2023,04:17:18,0.001,0.0,0.0,0.0
24/07/2023,04:18:18,0.002,0.0,0.0,0.0
24/07/2023,04:19:17,0.001,0.0,0.0,0.0
24/07/2023,04:20:18,0.001,0.0,0.0,0.0
24/07/2023,04:21:18,0.001,0.0,0.0,0.0
24/07/2023,04:22:17,0.001,0.0,0.0,0.0
24/07/2023,04:23:17,0.001,0.0,0.0,0.0
24/07/2023,04:24:17,0.001,0.0,0.0,0.0
24/07/2023,04:25:18,0.002,0.0,0.0,0.0
24/07/2023,04:26:17,0.002,0.0,0.0,0.0
24/07/2023,04:27:17,0.002,0.0,0.0,0.0
24/07/2023,04:28:18,0.001,0.0,0.0,0.0
24/07/2023,04:29:18,0.002,0.0,0.0,0.0
24/07/2023,04:30:18,0.001,0.0,0.0,0.0
24/07/2023,04:31:17,0.003,0.0,0.0,0.0
24/07/2023,04:32:18,0.002,0.0,0.0,0.0
24/07/2023,04:33:17,0.002,0.0,0.0,0.0
24/07/2023,04:34:18,0.003,0.0,0.0,0.0
24/07/2023,04:35:17,0.002,0.0,0.0,0.0
24/07/2023,04:36:17,0.002,0.0,0.0,0.0
24/07/2023,04:37:18,0.001,0.0,0.0,0.0
24/07/2023,04:38:17,0.002,0.0,0.0,0.0
24/07/2023,04:39:18,0.003,0.0,0.0,0.0
24/07/2023,04:40:18,0.003,0.0,0.0,0.0
24/07/2023,04:41:17,0.004,0.0,0.0,0.0
24/07/2023,04:42:17,0.003,0.0,0.0,0.0
24/07/2023,04:43:18,0.002,0.0,0.0,0.0
24/07/2023,04:44:18,0.003,0.0,0.0,0.0
24/07/2023,04:45:17,0.003,0.0,0.0,0.0
24/07/2023,04:46:18,0.003,0.0,0.0,0.0
24/07/2023,04:47:18,0.005,0.0,0.0,0.0
24/07/2023,04:48:18,0.003,0.0,0.0,0.0
24/07/2023,04:49:17,0.003,0.0,0.0,0.0
24/07/2023,04:50:18,0.002,0.0,0.0,0.0
24/07/2023,04:51:18,0.003,0.0,0.0,0.0
24/07/2023,04:52:18,0.003,0.0,0.0,0.0
24/07/2023,04:53:18,0.003,0.0,0.0,0.0
24/07/2023,04:54:18,0.005,0.0,0.0,0.0
24/07/2023,04:55:18,0.003,0.0,0.0,0.0
24/07/2023,04:56:18,0.003,0.0,0.0,0.0
24/07/2023,04:57:19,0.003,0.0,0.0,0.0
24/07/2023,04:58:18,0.003,0.0,0.0,0.0
24/07/2023,04:59:18,0.003,0.0,0.0,0.0
24/07/2023,05:00:18,0.003,0.0,0.0,0.0
24/07/2023,05:01:17,0.003,0.0,0.0,0.0
24/07/2023,05:02:18,0.003,0.0,0.0,0.0
24/07/2023,05:03:18,0.004,0.0,0.0,0.0
24/07/2023,05:04:18,0.004,0.0,0.0,0.0
24/07/2023,05:05:18,0.004,0.0,0.0,0.0
24/07/2023,05:06:17,0.005,0.0,0.0,0.0
24/07/2023,05:07:18,0.006,0.0,0.0,0.0
24/07/2023,05:08:17,0.005,0.0,0.0,0.0
24/07/2023,05:09:18,0.007,0.0,0.0,0.0
24/07/2023,05:10:18,0.007,0.0,0.0,0.0
24/07/2023,05:11:17,0.006,0.0,0.0,0.0
24/07/2023,05:12:18,0.007,0.0,0.0,0.0
24/07/2023,05:13:17,0.006,0.0,0.001,0.001
24/07/2023,05:14:18,0.006,0.0,0.001,0.0
24/07/2023,05:15:18,0.006,0.0,0.001,0.0
24/07/2023,05:16:17,0.005,0.0,0.001,0.0
24/07/2023,05:17:18,0.005,0.0,0.001,0.0
24/07/2023,05:18:18,0.004,0.0,0.001,0.0
24/07/2023,05:19:18,0.004,0.0,0.001,0.0
24/07/2023,05:20:18,0.004,0.0,0.001,0.0
24/07/2023,05:21:18,0.005,0.0,0.001,0.0
24/07/2023,05:22:18,0.006,0.0,0.001,0.0
24/07/2023,05:23:18,0.007,0.0,0.001,0.0
24/07/2023,05:24:18,0.008,0.0,0.001,0.0
24/07/2023,05:25:18,0.007,0.0,0.001,0.0
24/07/2023,05:26:18,0.007,0.0,0.001,0.0
24/07/2023,05:27:18,0.007,0.0,0.001,0.0
24/07/2023,05:28:18,0.009,0.0,0.001,0.0
24/07/2023,05:29:18,0.011,0.0,0.002,0.001
24/07/2023,05:30:18,0.012,0.0,0.002,0.0
24/07/2023,05:31:18,0.012,0.0,0.002,0.0
24/07/2023,05:32:18,0.013,0.0,0.002,0.0
24/07/2023,05:33:18,0.014,0.0,0.002,0.0
24/07/2023,05:34:17,0.017,0.0,0.003,0.001
24/07/2023,05:35:18,0.018,0.0,0.003,0.0
24/07/2023,05:36:18,0.019,0.0,0.003,0.0
24/07/2023,05:37:18,0.019,0.0,0.004,0.001
24/07/2023,05:38:17,0.019,0.0,0.004,0.0
24/07/2023,05:39:18,0.020,0.0,0.004,0.0
24/07/2023,05:40:18,0.020,0.0,0.005,0.001
24/07/2023,05:41:18,0.019,0.0,0.005,0.0
24/07/2023,05:42:18,0.019,0.0,0.005,0.0
24/07/2023,05:43:17,0.020,0.0,0.006,0.001
24/07/2023,05:44:18,0.019,0.0,0.006,0.0
24/07/2023,05:45:18,0.019,0.0,0.006,0.0
24/07/2023,05:46:18,0.018,0.0,0.007,0.001
24/07/2023,05:47:18,0.017,0.0,0.007,0.0
24/07/2023,05:48:17,0.020,0.0,0.007,0.0
24/07/2023,05:49:18,0.021,0.0,0.007,0.0
24/07/2023,05:50:18,0.023,0.0,0.008,0.001
24/07/2023,05:51:18,0.025,0.0,0.008,0.0
24/07/2023,05:52:18,0.025,0.0,0.009,0.001
24/07/2023,05:53:17,0.024,0.0,0.009,0.0
24/07/2023,05:54:18,0.023,0.0,0.009,0.0
24/07/2023,05:55:18,0.025,0.0,0.01,0.001
24/07/2023,05:56:18,0.024,0.0,0.01,0.0
24/07/2023,05:57:18,0.024,0.0,0.011,0.001
24/07/2023,05:58:18,0.024,0.0,0.011,0.0
24/07/2023,05:59:18,0.023,0.0,0.011,0.0
24/07/2023,06:00:18,0.024,0.0,0.012,0.001
24/07/2023,06:01:18,0.026,0.0,0.012,0.0
24/07/2023,06:02:17,0.026,0.0,0.013,0.001
24/07/2023,06:03:18,0.030,0.0,0.013,0.0
24/07/2023,06:04:18,0.032,0.0,0.014,0.001
24/07/2023,06:05:18,0.029,0.0,0.014,0.0
24/07/2023,06:06:18,0.028,0.0,0.015,0.001
24/07/2023,06:07:17,0.027,0.0,0.015,0.0
24/07/2023,06:08:17,0.026,0.0,0.016,0.001
24/07/2023,06:09:18,0.023,0.0,0.016,0.0
24/07/2023,06:10:18,0.024,0.0,0.016,0.0
24/07/2023,06:11:18,0.025,0.0,0.017,0.001
24/07/2023,06:12:18,0.026,0.0,0.017,0.0
24/07/2023,06:13:18,0.028,0.0,0.018,0.001
24/07/2023,06:14:17,0.027,0.0,0.018,0.0
24/07/2023,06:15:18,0.025,0.0,0.018,0.0
24/07/2023,06:16:18,0.025,0.0,0.019,0.001
24/07/2023,06:17:18,0.024,0.0,0.019,0.0
24/07/2023,06:18:18,0.025,0.0,0.02,0.001
24/07/2023,06:19:18,0.023,0.0,0.02,0.0
24/07/2023,06:20:18,0.025,0.0,0.021,0.001
24/07/2023,06:21:18,0.024,0.0,0.021,0.0
24/07/2023,06:22:17,0.025,0.0,0.021,0.0
24/07/2023,06:23:18,0.031,0.0,0.022,0.001
24/07/2023,06:24:17,0.037,0.0,0.022,0.0
24/07/2023,06:25:18,0.041,0.0,0.023,0.001
24/07/2023,06:26:18,0.045,0.0,0.024,0.001
24/07/2023,06:27:18,0.035,0.0,0.024,0.0
24/07/2023,06:28:18,0.030,0.0,0.025,0.001
24/07/2023,06:29:18,0.028,0.0,0.025,0.0
24/07/2023,06:30:18,0.029,0.0,0.026,0.001
24/07/2023,06:31:18,0.030,0.0,0.026,0.0
24/07/2023,06:32:18,0.033,0.0,0.027,0.001
24/07/2023,06:33:18,0.044,0.0,0.028,0.001
24/07/2023,06:34:18,0.054,0.0,0.028,0.0
24/07/2023,06:35:17,0.051,0.0,0.029,0.001
24/07/2023,06:36:18,0.050,0.0,0.03,0.001
24/07/2023,06:37:18,0.043,0.0,0.031,0.001
24/07/2023,06:38:17,0.041,0.0,0.032,0.001
24/07/2023,06:39:18,0.044,0.0,0.032,0.0
24/07/2023,06:40:18,0.053,0.0,0.033,0.001
24/07/2023,06:41:18,0.053,0.0,0.034,0.001
24/07/2023,06:42:18,0.051,0.0,0.035,0.001
24/07/2023,06:43:18,0.050,0.0,0.036,0.001
24/07/2023,06:44:18,0.046,0.0,0.036,0.0
24/07/2023,06:45:18,0.042,0.0,0.037,0.001
24/07/2023,06:46:17,0.042,0.0,0.038,0.001
24/07/2023,06:47:18,0.036,0.0,0.038,0.0
24/07/2023,06:48:18,0.040,0.0,0.039,0.001
24/07/2023,06:49:18,0.041,0.0,0.04,0.001
24/07/2023,06:50:18,0.050,0.0,0.041,0.001
24/07/2023,06:51:18,0.055,0.0,0.041,0.0
24/07/2023,06:52:18,0.057,0.0,0.042,0.001
24/07/2023,06:53:18,0.060,0.0,0.043,0.001
24/07/2023,06:54:18,0.059,0.0,0.044,0.001
24/07/2023,06:55:18,0.061,0.0,0.045,0.001
24/07/2023,06:56:18,0.062,0.0,0.046,0.001
24/07/2023,06:57:18,0.060,0.0,0.047,0.001
24/07/2023,06:58:18,0.058,0.0,0.048,0.001
24/07/2023,06:59:18,0.064,0.0,0.049,0.001
24/07/2023,07:00:18,0.059,0.0,0.05,0.001
24/07/2023,07:01:18,0.063,0.0,0.051,0.001
24/07/2023,07:02:18,0.059,0.0,0.052,0.001
24/07/2023,07:03:18,0.069,0.0,0.053,0.001
24/07/2023,07:04:18,0.067,0.0,0.055,0.002
24/07/2023,07:05:18,0.071,0.0,0.056,0.001
24/07/2023,07:06:18,0.069,0.0,0.057,0.001
24/07/2023,07:07:17,0.062,0.0,0.058,0.001
24/07/2023,07:08:18,0.059,0.0,0.059,0.001
24/07/2023,07:09:18,0.052,0.0,0.06,0.001
24/07/2023,07:10:18,0.058,0.0,0.061,0.001
24/07/2023,07:11:18,0.063,0.0,0.062,0.001
24/07/2023,07:12:18,0.057,0.0,0.063,0.001
24/07/2023,07:13:18,0.056,0.0,0.064,0.001
24/07/2023,07:14:17,0.066,0.0,0.065,0.001
24/07/2023,07:15:18,0.077,0.0,0.066,0.001
24/07/2023,07:16:18,0.082,0.0,0.067,0.001
24/07/2023,07:17:18,0.087,0.0,0.069,0.002
24/07/2023,07:18:18,0.096,0.0,0.07,0.001
24/07/2023,07:19:18,0.092,0.0,0.072,0.002
24/07/2023,07:20:18,0.090,0.0,0.073,0.001
24/07/2023,07:21:18,0.095,0.0,0.075,0.002
24/07/2023,07:22:18,0.097,0.0,0.076,0.001
24/07/2023,07:23:18,0.102,0.0,0.078,0.002
24/07/2023,07:24:18,0.098,0.0,0.08,0.002
24/07/2023,07:25:18,0.106,0.0,0.082,0.002
24/07/2023,07:26:18,0.110,0.0,0.083,0.001
24/07/2023,07:27:20,0.101,0.0,0.085,0.002
24/07/2023,07:28:18,0.102,0.0,0.087,0.002
24/07/2023,07:29:18,0.109,0.0,0.089,0.002
24/07/2023,07:30:18,0.114,0.0,0.09,0.001
24/07/2023,07:31:18,0.116,0.0,0.092,0.002
24/07/2023,07:32:18,0.116,0.0,0.094,0.002
24/07/2023,07:33:18,0.111,0.0,0.096,0.002
24/07/2023,07:34:18,0.111,0.0,0.098,0.002
24/07/2023,07:35:18,0.119,0.0,0.1,0.002
24/07/2023,07:36:18,0.117,0.0,0.102,0.002
24/07/2023,07:37:18,0.112,0.0,0.104,0.002
24/07/2023,07:38:18,0.109,0.0,0.106,0.002
24/07/2023,07:39:18,0.106,0.0,0.107,0.001
24/07/2023,07:40:18,0.106,0.0,0.109,0.002
24/07/2023,07:41:18,0.133,0.0,0.111,0.002
24/07/2023,07:42:18,0.142,0.0,0.114,0.003
24/07/2023,07:43:17,0.134,0.0,0.116,0.002
24/07/2023,07:44:18,0.148,0.0,0.118,0.002
24/07/2023,07:45:18,0.166,0.0,0.121,0.003
24/07/2023,07:46:18,0.171,0.0,0.124,0.003
24/07/2023,07:47:18,0.160,0.0,0.126,0.002
24/07/2023,07:48:18,0.172,0.0,0.129,0.003
24/07/2023,07:49:18,0.168,0.0,0.132,0.003
24/07/2023,07:50:18,0.173,0.0,0.135,0.003
24/07/2023,07:51:18,0.165,0.0,0.138,0.003
24/07/2023,07:52:18,0.167,0.0,0.14,0.002
24/07/2023,07:53:19,0.162,0.0,0.143,0.003
24/07/2023,07:54:18,0.168,0.0,0.146,0.003
24/07/2023,07:55:18,0.156,0.0,0.149,0.003
24/07/2023,07:56:18,0.169,0.0,0.151,0.002
24/07/2023,07:57:18,0.174,0.0,0.154,0.003
24/07/2023,07:58:18,0.181,0.0,0.157,0.003
24/07/2023,07:59:19,0.182,0.0,0.16,0.003
24/07/2023,08:00:18,0.190,0.0,0.163,0.003
24/07/2023,08:01:18,0.195,0.0,0.166,0.003
24/07/2023,08:02:18,0.210,0.0,0.17,0.004
24/07/2023,08:03:18,0.198,0.0,0.173,0.003
24/07/2023,08:04:18,0.198,0.0,0.176,0.003
24/07/2023,08:05:18,0.187,0.0,0.18,0.004
24/07/2023,08:06:18,0.185,0.0,0.183,0.003
24/07/2023,08:07:18,0.176,0.0,0.186,0.003
24/07/2023,08:08:18,0.170,0.0,0.189,0.003
24/07/2023,08:09:18,0.192,0.0,0.192,0.003
24/07/2023,08:10:20,0.205,0.0,0.195,0.003
24/07/2023,08:11:18,0.211,0.0,0.198,0.003
24/07/2023,08:12:18,0.235,1.0,0.202,0.004
24/07/2023,08:13:18,0.235,1.0,0.206,0.004
24/07/2023,08:14:18,0.259,1.0,0.21,0.004
24/07/2023,08:15:19,0.270,1.0,0.215,0.005
24/07/2023,08:16:18,0.274,1.0,0.219,0.004
24/07/2023,08:17:18,0.286,1.0,0.224,0.005
24/07/2023,08:18:18,0.276,1.0,0.229,0.005
24/07/2023,08:19:19,0.301,1.0,0.233,0.004
24/07/2023,08:20:18,0.303,1.0,0.238,0.005
24/07/2023,08:21:18,0.324,1.0,0.244,0.006
24/07/2023,08:22:18,0.339,1.0,0.249,0.005
24/07/2023,08:23:18,0.328,1.0,0.255,0.006
24/07/2023,08:24:18,0.309,1.0,0.26,0.005
24/07/2023,08:25:18,0.267,1.0,0.265,0.005
24/07/2023,08:26:18,0.203,0.0,0.269,0.004
24/07/2023,08:27:18,0.251,1.0,0.272,0.003
24/07/2023,08:28:18,0.261,1.0,0.277,0.005
24/07/2023,08:29:18,0.273,1.0,0.281,0.004
24/07/2023,08:30:18,0.274,1.0,0.286,0.005
24/07/2023,08:31:18,0.261,1.0,0.29,0.004
24/07/2023,08:32:18,0.189,0.0,0.294,0.004
24/07/2023,08:33:18,0.164,0.0,0.297,0.003
24/07/2023,08:34:18,0.167,0.0,0.3,0.003
24/07/2023,08:35:19,0.188,0.0,0.302,0.002
24/07/2023,08:36:19,0.245,1.0,0.306,0.004
24/07/2023,08:37:18,0.323,1.0,0.311,0.005
24/07/2023,08:38:18,0.279,1.0,0.316,0.005
24/07/2023,08:39:18,0.255,1.0,0.32,0.004
24/07/2023,08:40:18,0.219,1.0,0.324,0.004
24/07/2023,08:41:18,0.242,1.0,0.328,0.004
24/07/2023,08:42:18,0.258,1.0,0.332,0.004
24/07/2023,08:43:19,0.266,1.0,0.337,0.005
24/07/2023,08:44:18,0.261,1.0,0.341,0.004
24/07/2023,08:45:18,0.297,1.0,0.346,0.005
24/07/2023,08:46:18,0.363,1.0,0.351,0.005
24/07/2023,08:47:18,0.404,1.0,0.358,0.007
24/07/2023,08:48:18,0.415,1.0,0.364,0.006
24/07/2023,08:49:18,0.454,1.0,0.372,0.008
24/07/2023,08:50:18,0.464,1.0,0.379,0.007
24/07/2023,08:51:18,0.444,1.0,0.387,0.008
24/07/2023,08:52:19,0.444,1.0,0.394,0.007
24/07/2023,08:53:18,0.381,1.0,0.401,0.007
24/07/2023,08:54:18,0.318,1.0,0.407,0.006
24/07/2023,08:55:19,0.300,1.0,0.412,0.005
24/07/2023,08:56:18,0.328,1.0,0.417,0.005
24/07/2023,08:57:18,0.417,1.0,0.423,0.006
24/07/2023,08:58:19,0.424,1.0,0.431,0.008
24/07/2023,08:59:18,0.440,1.0,0.438,0.007
24/07/2023,09:00:18,0.419,1.0,0.445,0.007
24/07/2023,09:01:19,0.413,1.0,0.452,0.007
24/07/2023,09:02:18,0.397,1.0,0.459,0.007
24/07/2023,09:03:18,0.396,1.0,0.465,0.006
24/07/2023,09:04:18,0.370,1.0,0.472,0.007
24/07/2023,09:05:18,0.377,1.0,0.478,0.006
24/07/2023,09:06:18,0.396,1.0,0.484,0.006
24/07/2023,09:07:18,0.401,1.0,0.491,0.007
24/07/2023,09:08:18,0.357,1.0,0.497,0.006
24/07/2023,09:09:19,0.337,1.0,0.503,0.006
24/07/2023,09:10:19,0.347,1.0,0.509,0.006
24/07/2023,09:11:18,0.345,1.0,0.514,0.005
24/07/2023,09:12:18,0.293,1.0,0.52,0.006
24/07/2023,09:13:19,0.267,1.0,0.524,0.004
24/07/2023,09:14:18,0.257,1.0,0.529,0.005
24/07/2023,09:15:19,0.299,1.0,0.533,0.004
24/07/2023,09:16:18,0.284,1.0,0.538,0.005
24/07/2023,09:17:18,0.264,1.0,0.543,0.005
24/07/2023,09:18:18,0.270,1.0,0.547,0.004
24/07/2023,09:19:18,0.301,1.0,0.552,0.005
24/07/2023,09:20:18,0.310,1.0,0.557,0.005
24/07/2023,09:21:18,0.299,1.0,0.562,0.005
24/07/2023,09:22:18,0.315,1.0,0.567,0.005
24/07/2023,09:23:18,0.331,1.0,0.573,0.006
24/07/2023,09:24:18,0.351,1.0,0.578,0.005
24/07/2023,09:25:18,0.378,1.0,0.584,0.006
24/07/2023,09:26:18,0.318,1.0,0.59,0.006
24/07/2023,09:27:19,0.240,1.0,0.595,0.005
24/07/2023,09:28:18,0.203,0.0,0.598,0.003
24/07/2023,09:29:18,0.284,1.0,0.602,0.004
24/07/2023,09:30:17,0.363,1.0,0.608,0.006
24/07/2023,09:31:18,0.344,1.0,0.614,0.006
24/07/2023,09:32:18,0.343,1.0,0.62,0.006
24/07/2023,09:33:18,0.394,1.0,0.626,0.006
24/07/2023,09:34:18,0.418,1.0,0.632,0.006
24/07/2023,09:35:18,0.493,1.0,0.64,0.008
24/07/2023,09:36:19,0.441,1.0,0.648,0.008
24/07/2023,09:37:19,0.458,1.0,0.655,0.007
24/07/2023,09:38:18,0.439,1.0,0.663,0.008
24/07/2023,09:39:18,0.386,1.0,0.67,0.007
24/07/2023,09:40:18,0.368,1.0,0.676,0.006
24/07/2023,09:41:19,0.414,1.0,0.682,0.006
24/07/2023,09:42:19,0.474,1.0,0.69,0.008
24/07/2023,09:43:18,0.330,1.0,0.697,0.007
24/07/2023,09:44:18,0.296,1.0,0.702,0.005
24/07/2023,09:45:18,0.367,1.0,0.707,0.005
24/07/2023,09:46:18,0.398,1.0,0.714,0.007
24/07/2023,09:47:18,0.335,1.0,0.72,0.006
24/07/2023,09:48:18,0.347,1.0,0.725,0.005
24/07/2023,09:49:18,0.399,1.0,0.732,0.007
24/07/2023,09:50:19,0.392,1.0,0.738,0.006
24/07/2023,09:51:18,0.388,1.0,0.745,0.007
24/07/2023,09:52:18,0.393,1.0,0.751,0.006
24/07/2023,09:53:18,0.368,1.0,0.758,0.007
24/07/2023,09:54:18,0.349,1.0,0.764,0.006
24/07/2023,09:55:18,0.402,1.0,0.77,0.006
24/07/2023,09:56:19,0.480,1.0,0.777,0.007
24/07/2023,09:57:18,0.593,1.0,0.786,0.009
24/07/2023,09:58:18,0.630,1.0,0.796,0.01
24/07/2023,09:59:19,0.604,1.0,0.807,0.011
24/07/2023,10:00:18,0.592,1.0,0.817,0.01